SUNNYSIDE Weather Reports


time (UTC)temp
C
wind
direction
speed
KPH
gust
KPH
rain 1hr
cm
rain 24hr
cm
rain mn
cm
humidity
%
barometer
mb
20260902194554 22 62 4.8 14.5 0.00 0.00 0.00 51 984.1
20260902194041 22 98 1.6 9.7 0.00 0.00 0.00 50 984.0
20260902193541 22 42 3.2 8.0 0.00 0.00 0.00 50 984.1
20260902193044 22 341 3.2 9.7 0.00 0.00 0.00 51 984.2
20260902192540 22 355 6.4 9.7 0.00 0.00 0.00 51 984.2
20260902192040 22 335 6.4 9.7 0.00 0.00 0.00 50 984.2
20260902191550 22 61 1.6 4.8 0.00 0.00 0.00 50 984.2
20260902191043 22 61 1.6 6.4 0.00 0.00 0.00 49 984.2
20260902190539 22 74 1.6 8.0 0.00 0.00 0.00 49 984.4
20260902190038 22 46 1.6 8.0 0.00 0.00 0.00 50 984.4
20260902185538 22 55 0.0 6.4 0.00 0.00 0.00 50 984.5
20260902185038 22 49 3.2 8.0 0.00 0.00 0.00 50 984.5
20260902184540 22 16 4.8 8.0 0.00 0.00 0.00 50 984.4
20260902184036 22 28 1.6 6.4 0.00 0.00 0.00 50 984.6
20260902183536 22 88 0.0 8.0 0.00 0.00 0.00 50 984.5
20260902183043 22 88 3.2 8.0 0.00 0.00 0.00 50 984.6
20260902182538 22 67 1.6 8.0 0.00 0.00 0.00 50 984.7
20260902182035 22 80 4.8 8.0 0.00 0.00 0.00 49 984.5
20260902181535 22 69 3.2 9.7 0.00 0.00 0.00 49 984.7
20260902181034 22 65 1.6 9.7 0.00 0.00 0.00 50 984.6
20260902180534 22 65 4.8 8.0 0.00 0.00 0.00 48 984.6
20260902180034 22 360 1.6 9.7 0.00 0.00 0.00 50 984.6
20260902175533 22 341 1.6 8.0 0.00 0.00 0.00 45 984.7
20260902175032 22 20 3.2 8.0 0.00 0.00 0.00 46 984.7
20260902174534 22 49 0.0 6.4 0.00 0.00 0.00 44 984.6
20260902174032 21 21 1.6 3.2 0.00 0.00 0.00 45 984.7
20260902173531 21 18 0.0 6.4 0.00 0.00 0.00 46 984.8
20260902173044 21 248 1.6 6.4 0.00 0.00 0.00 47 984.8
20260902172530 21 254 0.0 8.0 0.00 0.00 0.00 46 984.7
20260902172030 21 246 1.6 8.0 0.00 0.00 0.00 47 984.8
20260902171530 21 245 3.2 6.4 0.00 0.00 0.00 47 984.9
20260902171029 21 296 0.0 11.3 0.00 0.00 0.00 46 984.9
20260902170533 21 284 3.2 11.3 0.00 0.00 0.00 47 985.0
20260902170029 21 286 3.2 8.0 0.00 0.00 0.00 47 984.9
20260902165527 21 360 0.0 6.4 0.00 0.00 0.00 49 984.9
20260902165026 21 248 1.6 6.4 0.00 0.00 0.00 51 985.0
20260902164526 21 249 1.6 6.4 0.00 0.00 0.00 50 985.0
20260902164025 21 273 0.0 6.4 0.00 0.00 0.00 52 984.9
20260902163524 21 243 3.2 6.4 0.00 0.00 0.00 55 984.9
20260902163023 20 246 0.0 4.8 0.00 0.00 0.00 54 984.9
20260902162522 20 246 1.6 4.8 0.00 0.00 0.00 53 984.8
20260902162021 20 275 0.0 6.4 0.00 0.00 0.00 54 984.9
20260902161521 20 275 1.6 6.4 0.00 0.00 0.00 56 985.1
20260902161019 20 273 0.0 3.2 0.00 0.00 0.00 55 984.9
20260902160518 20 273 0.0 4.8 0.00 0.00 0.00 55 984.9
20260902160017 20 273 1.6 4.8 0.00 0.00 0.00 56 985.1
20260902155521 19 360 0.0 4.8 0.00 0.00 0.00 54 985.2
20260902155016 19 360 0.0 4.8 0.00 0.00 0.00 56 985.2
20260902154523 19 360 0.0 3.2 0.00 0.00 0.00 58 985.1
20260902154016 18 360 0.0 4.8 0.00 0.00 0.00 60 985.0
20260902153512 18 360 0.0 4.8 0.00 0.00 0.00 62 985.0
20260902153011 18 331 0.0 3.2 0.00 0.00 0.00 63 985.0
20260902152510 18 338 0.0 4.8 0.00 0.00 0.00 64 985.0
20260902152009 18 338 0.0 4.8 0.00 0.00 0.00 65 985.0
20260902151507 18 336 0.0 4.8 0.00 0.00 0.00 66 985.0
20260902151005 17 340 1.6 4.8 0.00 0.00 0.00 67 985.1
20260902150503 17 238 0.0 3.2 0.00 0.00 0.00 67 985.2
20260902145503 17 238 0.0 3.2 0.00 0.00 0.00 68 985.0
20260902145001 17 238 0.0 3.2 0.00 0.00 0.00 69 985.0
20260902144606 17 238 0.0 3.2 0.00 0.00 0.00 69 985.1
20260902144101 16 238 0.0 3.2 0.00 0.00 0.00 69 985.1
20260902143557 16 238 0.0 3.2 0.00 0.00 0.00 70 985.0
20260902143058 16 238 0.0 3.2 0.00 0.00 0.00 70 985.1
20260902142556 16 233 0.0 1.6 0.00 0.00 0.00 70 985.3
20260902142055 16 233 0.0 1.6 0.00 0.00 0.00 70 985.3
20260902141556 16 233 0.0 1.6 0.00 0.00 0.00 70 985.3
20260902141053 16 233 0.0 0.0 0.00 0.00 0.00 70 985.3
20260902140554 16 233 0.0 0.0 0.00 0.00 0.00 70 985.2
20260902140051 16 233 0.0 1.6 0.00 0.00 0.00 70 985.2
20260902135549 15 233 0.0 1.6 0.00 0.00 0.00 70 985.3
20260902135049 15 233 0.0 3.2 0.00 0.00 0.00 70 985.3
20260902134550 15 233 1.6 3.2 0.00 0.00 0.00 70 985.3
20260902134046 15 233 1.6 3.2 0.00 0.00 0.00 70 985.2
20260902133546 15 233 0.0 6.4 0.00 0.00 0.00 71 985.2
20260902133047 15 233 1.6 6.4 0.00 0.00 0.00 70 985.2
20260902132549 15 233 3.2 6.4 0.00 0.00 0.00 71 985.2
20260902132043 15 233 4.8 6.4 0.00 0.00 0.00 71 985.3
20260902131602 14 233 1.6 4.8 0.00 0.00 0.00 71 985.2
20260902131042 14 233 1.6 4.8 0.00 0.00 0.00 71 985.1
20260902130540 14 233 3.2 4.8 0.00 0.00 0.00 71 985.1
20260902130051 14 233 1.6 3.2 0.00 0.00 0.00 71 985.0
20260902125538 13 233 0.0 6.4 0.00 0.00 0.00 71 985.0
20260902125038 13 233 3.2 6.4 0.00 0.00 0.00 71 985.1
20260902124537 13 233 0.0 4.8 0.00 0.00 0.00 71 985.0
20260902124036 13 233 1.6 4.8 0.00 0.00 0.00 71 984.9
20260902123536 13 233 1.6 4.8 0.00 0.00 0.00 71 984.9
20260902123036 13 233 0.0 1.6 0.00 0.00 0.00 71 984.8
20260902122536 13 233 0.0 0.0 0.00 0.00 0.00 71 984.7
20260902122036 12 233 0.0 0.0 0.00 0.00 0.00 71 984.7
20260902121537 12 233 0.0 1.6 0.00 0.00 0.00 71 984.6
20260902121034 12 233 0.0 6.4 0.00 0.00 0.00 71 984.8
20260902120534 12 233 3.2 6.4 0.00 0.00 0.00 70 984.7
20260902120034 13 233 0.0 0.0 0.00 0.00 0.00 70 984.8
20260902115537 13 233 0.0 0.0 0.00 0.00 0.00 71 984.8
20260902115035 13 233 0.0 0.0 0.00 0.00 0.00 71 984.8
20260902114535 13 233 0.0 0.0 0.00 0.00 0.00 71 984.8
20260902114036 13 233 0.0 0.0 0.00 0.00 0.00 71 984.7
20260902113534 12 233 0.0 0.0 0.00 0.00 0.00 71 984.7
20260902113033 12 233 0.0 0.0 0.00 0.00 0.00 71 984.7
20260902112534 12 233 0.0 0.0 0.00 0.00 0.00 71 984.6
20260902112036 12 233 0.0 0.0 0.00 0.00 0.00 71 984.6
20260902111534 12 233 0.0 0.0 0.00 0.00 0.00 70 984.7
20260902111032 12 233 0.0 0.0 0.00 0.00 0.00 70 984.7
20260902110531 12 233 0.0 0.0 0.00 0.00 0.00 70 984.6
20260902110042 12 233 0.0 0.0 0.00 0.00 0.00 71 984.5
20260902105530 12 233 0.0 0.0 0.00 0.00 0.00 71 984.6
20260902105030 12 233 0.0 0.0 0.00 0.00 0.00 70 984.6
20260902104537 12 233 0.0 0.0 0.00 0.00 0.00 71 984.6
20260902104029 12 233 0.0 0.0 0.00 0.00 0.00 70 984.7
20260902103528 12 233 0.0 0.0 0.00 0.00 0.00 70 984.7
20260902103034 12 233 0.0 0.0 0.00 0.00 0.00 70 984.7
20260902102528 12 233 0.0 0.0 0.00 0.00 0.00 70 984.7
20260902102028 12 233 0.0 0.0 0.00 0.00 0.00 70 984.6
20260902101528 13 233 0.0 0.0 0.00 0.00 0.00 70 984.7
20260902101027 13 233 0.0 0.0 0.00 0.00 0.00 70 984.7
20260902100530 13 233 0.0 0.0 0.00 0.00 0.00 71 984.7
20260902100027 13 233 0.0 0.0 0.00 0.00 0.00 71 984.7
20260902095528 13 233 0.0 0.0 0.00 0.00 0.00 71 984.7
20260902095026 13 233 0.0 3.2 0.00 0.00 0.00 71 984.6
20260902094526 12 233 0.0 4.8 0.00 0.00 0.00 70 984.6
20260902094033 13 233 3.2 4.8 0.00 0.00 0.00 70 984.7
20260902093526 13 233 3.2 4.8 0.00 0.00 0.00 70 984.7
20260902093035 13 233 0.0 3.2 0.00 0.00 0.00 70 984.6
20260902092525 13 233 0.0 1.6 0.00 0.00 0.00 70 984.5
20260902092024 13 233 0.0 3.2 0.00 0.00 0.00 70 984.5
20260902091527 13 233 1.6 3.2 0.00 0.00 0.00 70 984.5
20260902091024 13 233 1.6 3.2 0.00 0.00 0.00 70 984.4
20260902090523 13 233 1.6 3.2 0.00 0.00 0.00 70 984.4
20260902090023 13 233 1.6 4.8 0.00 0.00 0.00 70 984.4
20260902085523 13 233 3.2 4.8 0.00 0.00 0.00 70 984.4
20260902085023 13 233 1.6 3.2 0.00 0.00 0.00 70 984.4
20260902084525 13 233 1.6 3.2 0.00 0.00 0.00 70 984.4
20260902084023 13 233 0.0 3.2 0.00 0.00 0.00 70 984.4
20260902083522 13 233 0.0 3.2 0.00 0.00 0.00 70 984.4
20260902083033 13 233 1.6 3.2 0.00 0.00 0.00 70 984.4
20260902082522 13 233 1.6 3.2 0.00 0.00 0.00 70 984.6
20260902082021 13 233 0.0 0.0 0.00 0.00 0.00 70 984.5
20260902081526 12 233 0.0 0.0 0.00 0.00 0.00 70 984.4
20260902081020 12 233 0.0 1.6 0.00 0.00 0.00 70 984.4
20260902080520 12 233 0.0 1.6 0.00 0.00 0.00 70 984.3
20260902080026 13 233 0.0 0.0 0.00 0.00 0.00 69 984.4
20260902075517 13 233 0.0 0.0 0.00 0.00 0.00 69 984.4
20260902075019 13 233 0.0 0.0 0.00 0.00 0.00 70 984.4
20260902074517 13 233 0.0 0.0 0.00 0.00 0.00 70 984.4
20260902074018 13 233 0.0 3.2 0.00 0.00 0.00 70 984.4
20260902073517 13 233 0.0 4.8 0.00 0.00 0.00 70 984.3
20260902073028 13 233 3.2 4.8 0.00 0.00 0.00 70 984.4
20260902072516 13 233 3.2 4.8 0.00 0.00 0.00 70 984.4
20260902072017 13 233 0.0 3.2 0.00 0.00 0.00 70 984.4
20260902071518 13 233 0.0 0.0 0.00 0.00 0.00 70 984.4
20260902071016 13 233 0.0 0.0 0.00 0.00 0.00 70 984.5
20260902070515 13 233 0.0 0.0 0.00 0.00 0.00 70 984.4
20260902070015 13 233 0.0 3.2 0.00 0.00 0.00 70 984.4
20260902065514 13 233 0.0 3.2 0.00 0.00 0.00 70 984.3
20260902065014 13 233 1.6 4.8 0.00 0.00 0.00 70 984.3
20260902064515 13 233 3.2 4.8 0.00 0.00 0.00 70 984.3
20260902064014 13 233 1.6 4.8 0.00 0.00 0.00 70 984.3
20260902063515 13 233 1.6 3.2 0.00 0.00 0.00 70 984.2
20260902063016 13 233 0.0 3.2 0.00 0.00 0.00 70 984.3
20260902062512 13 233 1.6 3.2 0.00 0.00 0.00 70 984.3
20260902062011 13 233 1.6 3.2 0.00 0.00 0.00 70 984.3
20260902061513 13 233 1.6 6.4 0.00 0.00 0.00 70 984.2
20260902061019 13 233 3.2 6.4 0.00 0.00 0.00 70 984.2
20260902060510 13 244 3.2 6.4 0.00 0.00 0.00 70 984.1
20260902060010 13 244 3.2 6.4 0.00 0.00 0.00 70 984.1
20260902055509 13 269 4.8 6.4 0.00 0.00 0.00 70 984.1
20260902055009 13 269 3.2 4.8 0.00 0.00 0.00 70 984.1
20260902054520 13 269 1.6 3.2 0.00 0.00 0.00 70 984.1
20260902054007 13 269 0.0 4.8 0.00 0.00 0.00 69 984.0
20260902053507 13 269 3.2 4.8 0.00 0.00 0.00 69 983.9
20260902053008 13 269 1.6 4.8 0.00 0.00 0.00 69 983.8
20260902052507 13 273 0.0 3.2 0.00 0.00 0.00 70 983.8
20260902052004 13 273 0.0 1.6 0.00 0.00 0.00 70 983.9
20260902051507 13 273 0.0 1.6 0.00 0.00 0.00 69 983.9
20260902051004 13 273 0.0 0.0 0.00 0.00 0.00 69 983.9
20260902050503 13 273 0.0 0.0 0.00 0.00 0.00 69 983.9
20260902050004 13 273 0.0 0.0 0.00 0.00 0.00 69 983.9
20260902045502 13 273 0.0 0.0 0.00 0.00 0.00 69 983.9
20260902045001 13 273 0.0 3.2 0.00 0.00 0.00 69 983.9
20260902044502 14 273 0.0 3.2 0.00 0.00 0.00 69 983.9
20260902044002 14 257 0.0 0.0 0.00 0.00 0.00 69 983.9
20260902043501 14 257 0.0 0.0 0.00 0.00 0.00 69 984.0
20260902043001 14 257 0.0 0.0 0.00 0.00 0.00 69 984.0
20260902042501 15 257 0.0 0.0 0.00 0.00 0.00 69 984.0
20260902042001 15 257 0.0 0.0 0.00 0.00 0.00 69 984.0
20260902041610 14 257 0.0 1.6 0.00 0.00 0.00 69 984.0
20260902041059 14 257 0.0 3.2 0.00 0.00 0.00 69 984.0
20260902040559 14 257 0.0 3.2 0.00 0.00 0.00 69 983.9
20260902040103 14 257 0.0 1.6 0.00 0.00 0.00 68 983.9
20260902035559 14 257 0.0 3.2 0.00 0.00 0.00 68 983.9
20260902035058 14 257 0.0 3.2 0.00 0.00 0.00 67 983.9
20260902034559 14 257 0.0 4.8 0.00 0.00 0.00 66 983.8
20260902034100 15 257 1.6 4.8 0.00 0.00 0.00 66 983.9
20260902033557 15 257 3.2 4.8 0.00 0.00 0.00 66 983.9
20260902033101 15 343 0.0 0.0 0.00 0.00 0.00 65 983.8
20260902032601 15 343 0.0 3.2 0.00 0.00 0.00 65 983.8
20260902032056 15 343 1.6 3.2 0.00 0.00 0.00 66 983.8
20260902031556 15 344 0.0 0.0 0.00 0.00 0.00 63 983.7
20260902031056 15 344 0.0 0.0 0.00 0.00 0.00 61 983.7
20260902030559 15 344 0.0 0.0 0.00 0.00 0.00 61 983.7
20260902030055 15 344 0.0 0.0 0.00 0.00 0.00 60 983.6
20260902025555 15 344 0.0 0.0 0.00 0.00 0.00 59 983.5
20260902025054 16 344 0.0 0.0 0.00 0.00 0.00 60 983.5
20260902024553 16 344 0.0 0.0 0.00 0.00 0.00 60 983.4
20260902024053 16 344 0.0 0.0 0.00 0.00 0.00 59 983.3
20260902023553 16 344 0.0 0.0 0.00 0.00 0.00 59 983.3
20260902023053 16 344 0.0 0.0 0.00 0.00 0.00 59 983.3
20260902022554 16 344 0.0 0.0 0.00 0.00 0.00 58 983.3
20260902022052 16 344 0.0 0.0 0.00 0.00 0.00 57 983.4
20260902021555 16 344 0.0 0.0 0.00 0.00 0.00 57 983.4
20260902021053 16 344 0.0 0.0 0.00 0.00 0.00 56 983.4
20260902020552 17 344 0.0 0.0 0.00 0.00 0.00 56 983.4
20260902020052 17 344 0.0 0.0 0.00 0.00 0.00 55 983.3
20260902015551 17 344 0.0 0.0 0.00 0.00 0.00 56 983.3
20260902015051 17 344 0.0 0.0 0.00 0.00 0.00 55 983.2
20260902014553 17 344 0.0 0.0 0.00 0.00 0.00 55 983.2
20260902014053 17 344 0.0 0.0 0.00 0.00 0.00 55 983.2
20260902013549 17 344 0.0 0.0 0.00 0.00 0.00 55 983.1
20260902013049 17 343 0.0 0.0 0.00 0.00 0.00 54 983.1
20260902012548 18 343 0.0 0.0 0.00 0.00 0.00 54 983.1
20260902012048 18 344 0.0 0.0 0.00 0.00 0.00 54 983.0
20260902011549 18 344 0.0 0.0 0.00 0.00 0.00 53 982.9
20260902011048 18 343 0.0 0.0 0.00 0.00 0.00 53 982.9
20260902010547 19 343 0.0 0.0 0.00 0.00 0.00 53 982.9
20260902010048 19 343 0.0 0.0 0.00 0.00 0.00 52 982.9
20260902005550 20 343 0.0 0.0 0.00 0.00 0.00 52 983.0
20260902005050 20 343 0.0 0.0 0.00 0.00 0.00 52 983.0
20260902004548 20 343 0.0 0.0 0.00 0.00 0.00 51 983.0
20260902004047 20 343 0.0 0.0 0.00 0.00 0.00 51 982.9
20260902003549 20 343 0.0 0.0 0.00 0.00 0.00 51 982.9
20260902003054 20 343 0.0 0.0 0.00 0.00 0.00 50 982.9
20260902002549 20 343 0.0 0.0 0.00 0.00 0.00 50 982.9
20260902002046 20 343 0.0 0.0 0.00 0.00 0.00 50 982.9
20260902001547 20 343 0.0 0.0 0.00 0.00 0.00 50 982.9
20260902001046 20 343 0.0 0.0 0.00 0.00 0.00 50 982.9
20260902000546 20 343 0.0 4.8 0.00 0.00 0.00 50 982.9
20260902000111 20 343 0.0 6.4 0.00 0.00 0.00 50 983.0
20260901235547 20 343 3.2 6.4 0.00 0.05 0.00 49 982.9
20260901235045 20 340 3.2 6.4 0.00 0.05 0.00 49 982.9
20260901234545 20 341 1.6 6.4 0.00 0.05 0.00 49 983.0
20260901234045 20 360 1.6 9.7 0.00 0.05 0.00 49 982.9
20260901233544 20 335 4.8 9.7 0.00 0.05 0.00 48 982.8
20260901233044 21 292 3.2 8.0 0.00 0.05 0.00 49 982.8
20260901232545 21 308 3.2 9.7 0.00 0.05 0.00 48 982.9
20260901232045 21 360 4.8 9.7 0.00 0.05 0.00 48 982.8
20260901231549 21 296 3.2 8.0 0.00 0.05 0.00 48 982.9
20260901231045 21 355 4.8 12.9 0.00 0.05 0.00 48 982.8
20260901230543 21 343 6.4 12.9 0.00 0.05 0.00 46 982.8
20260901230043 21 339 4.8 12.9 0.00 0.05 0.00 47 982.7
20260901225543 21 360 6.4 12.9 0.00 0.05 0.00 46 982.7
20260901225042 21 308 6.4 12.9 0.00 0.05 0.00 46 982.8
20260901224542 21 360 4.8 12.9 0.00 0.05 0.00 46 982.8
20260901224042 21 296 6.4 12.9 0.00 0.05 0.00 46 982.8
20260901223542 21 360 4.8 8.0 0.00 0.05 0.00 47 982.6
20260901223042 21 346 3.2 9.7 0.00 0.05 0.00 47 982.7
20260901222543 21 350 4.8 12.9 0.00 0.05 0.00 46 982.7
20260901222041 21 349 4.8 12.9 0.00 0.05 0.00 47 982.6
20260901221541 21 360 6.4 11.3 0.00 0.05 0.00 47 982.7
20260901221041 21 270 4.8 9.7 0.00 0.05 0.00 46 982.6
20260901220541 21 348 4.8 8.0 0.00 0.05 0.00 46 982.7
20260901220106 21 300 1.6 9.7 0.00 0.05 0.00 46 982.6
20260901215540 21 300 4.8 9.7 0.00 0.05 0.00 46 982.6
20260901215040 21 306 3.2 8.0 0.00 0.05 0.00 46 982.5
20260901214539 21 5 0.0 9.7 0.00 0.05 0.00 46 982.5
20260901214039 21 35 4.8 14.5 0.00 0.05 0.00 46 982.6
20260901213540 21 345 4.8 14.5 0.00 0.05 0.00 46 982.6
20260901213105 21 9 6.4 14.5 0.00 0.05 0.00 45 982.5
20260901212539 21 360 8.0 14.5 0.00 0.05 0.00 45 982.6
20260901212038 21 360 3.2 9.7 0.00 0.05 0.00 46 982.6
20260901211538 21 338 4.8 16.1 0.00 0.05 0.00 46 982.5
20260901211037 21 360 8.0 16.1 0.00 0.05 0.00 45 982.4
20260901210537 21 360 6.4 16.1 0.00 0.05 0.00 45 982.3
20260901210047 21 294 9.7 16.1 0.00 0.05 0.00 45 982.4
20260901205538 21 304 6.4 12.9 0.00 0.05 0.00 44 982.3
20260901205038 21 342 8.0 17.7 0.00 0.05 0.00 44 982.4
20260901204539 21 290 9.7 19.3 0.00 0.05 0.00 43 982.2
20260901204039 21 307 11.3 19.3 0.00 0.05 0.00 43 982.2
20260901203537 21 294 12.9 19.3 0.00 0.05 0.00 43 982.2
20260901203052 21 360 11.3 19.3 0.00 0.05 0.00 43 982.3
20260901202535 21 269 8.0 17.7 0.00 0.05 0.00 46 982.2
20260901202041 21 269 11.3 17.7 0.00 0.05 0.00 46 982.2
20260901201534 21 272 6.4 16.1 0.00 0.05 0.00 46 982.3
20260901201034 21 242 6.4 16.1 0.00 0.05 0.00 46 982.3
20260901200535 21 277 8.0 20.9 0.00 0.05 0.00 45 982.4
20260901200034 21 293 11.3 20.9 0.00 0.05 0.00 45 982.2
20260901195533 21 285 11.3 22.5 0.00 0.05 0.00 45 982.3
20260901195034 21 279 11.3 22.5 0.00 0.05 0.00 44 982.3